| time (UTC) | temp F | wind direction | speed MPH | gust MPH | rain 1hr in | rain 24hr in | rain mn in | humidity % | barometer mb |
| 20260904123728 | 80 | 195 | 1.0 | 5.0 | 0.00 | 0.00 | 0.00 | 51 | 1021.5 |
| 20260904123525 | 80 | 239 | 1.0 | 5.0 | 0.00 | 0.00 | 0.00 | 50 | 1021.4 |
| 20260904123316 | 81 | 290 | 1.0 | 5.0 | 0.00 | 0.00 | 0.00 | 52 | 1021.5 |
| 20260904123116 | 81 | 244 | 1.0 | 5.0 | 0.00 | 0.00 | 0.00 | 52 | 1021.5 |
| 20260904122908 | 80 | 229 | 1.0 | 5.0 | 0.00 | 0.00 | 0.00 | 52 | 1021.5 |
| 20260904122706 | 80 | 243 | 1.0 | 7.0 | 0.00 | 0.00 | 0.00 | 53 | 1021.6 |
| 20260904122140 | 80 | 235 | 1.0 | 7.0 | 0.00 | 0.00 | 0.00 | 52 | 1021.5 |
| 20260904121934 | 80 | 264 | 1.0 | 7.0 | 0.00 | 0.00 | 0.00 | 51 | 1021.5 |
| 20260904121727 | 80 | 243 | 2.0 | 7.0 | 0.00 | 0.00 | 0.00 | 52 | 1021.5 |
| 20260904121527 | 80 | 264 | 2.0 | 7.0 | 0.00 | 0.00 | 0.00 | 53 | 1021.5 |
| 20260904120641 | 80 | 227 | 2.0 | 7.0 | 0.00 | 0.00 | 0.00 | 54 | 1021.6 |
| 20260904120440 | 80 | 238 | 1.0 | 7.0 | 0.00 | 0.00 | 0.00 | 54 | 1021.6 |
| 20260904120233 | 80 | 245 | 1.0 | 7.0 | 0.00 | 0.00 | 0.00 | 54 | 1021.6 |
| 20260904120033 | 80 | 245 | 1.0 | 7.0 | 0.00 | 0.00 | 0.00 | 49 | 1021.6 |
| 20260904115827 | 80 | 261 | 1.0 | 7.0 | 0.00 | 0.00 | 0.00 | 54 | 1021.6 |
| 20260904115622 | 79 | 257 | 1.0 | 7.0 | 0.00 | 0.00 | 0.00 | 50 | 1021.7 |
| 20260904115420 | 79 | 200 | 2.0 | 7.0 | 0.00 | 0.00 | 0.00 | 53 | 1021.7 |
| 20260904115209 | 79 | 250 | 2.0 | 7.0 | 0.00 | 0.00 | 0.00 | 50 | 1021.7 |
| 20260904114324 | 79 | 243 | 1.0 | 5.0 | 0.00 | 0.00 | 0.00 | 52 | 1021.7 |
| 20260904114119 | 79 | 238 | 0.0 | 4.0 | 0.00 | 0.00 | 0.00 | 51 | 1021.7 |
| 20260904113917 | 79 | 283 | 1.0 | 5.0 | 0.00 | 0.00 | 0.00 | 54 | 1021.8 |
| 20260904113706 | 79 | 278 | 1.0 | 5.0 | 0.00 | 0.00 | 0.00 | 52 | 1021.7 |
| 20260904113457 | 78 | 252 | 1.0 | 5.0 | 0.00 | 0.00 | 0.00 | 55 | 1021.7 |
| 20260904113258 | 78 | 267 | 1.0 | 5.0 | 0.00 | 0.00 | 0.00 | 51 | 1021.7 |
| 20260904113055 | 78 | 246 | 1.0 | 5.0 | 0.00 | 0.00 | 0.00 | 50 | 1021.7 |
| 20260904112844 | 78 | 250 | 1.0 | 9.0 | 0.00 | 0.00 | 0.00 | 53 | 1021.7 |
| 20260904112641 | 78 | 272 | 1.0 | 9.0 | 0.00 | 0.00 | 0.00 | 52 | 1021.7 |
| 20260904112440 | 78 | 245 | 1.0 | 9.0 | 0.00 | 0.00 | 0.00 | 53 | 1021.7 |
| 20260904112238 | 78 | 243 | 2.0 | 9.0 | 0.00 | 0.00 | 0.00 | 53 | 1021.7 |
| 20260904112038 | 78 | 250 | 3.0 | 9.0 | 0.00 | 0.00 | 0.00 | 50 | 1021.8 |
| 20260904111829 | 78 | 240 | 3.0 | 9.0 | 0.00 | 0.00 | 0.00 | 52 | 1021.7 |
| 20260904111621 | 77 | 250 | 3.0 | 9.0 | 0.00 | 0.00 | 0.00 | 51 | 1021.7 |
| 20260904111059 | 77 | 240 | 3.0 | 9.0 | 0.00 | 0.00 | 0.00 | 48 | 1021.8 |
| 20260904110852 | 77 | 231 | 3.0 | 8.0 | 0.00 | 0.00 | 0.00 | 50 | 1021.8 |
| 20260904110643 | 77 | 225 | 2.0 | 8.0 | 0.00 | 0.00 | 0.00 | 50 | 1021.8 |
| 20260904110434 | 77 | 262 | 2.0 | 8.0 | 0.00 | 0.00 | 0.00 | 47 | 1021.8 |
| 20260904110228 | 78 | 233 | 2.0 | 6.0 | 0.00 | 0.00 | 0.00 | 48 | 1021.9 |
| 20260904110027 | 78 | 243 | 1.0 | 7.0 | 0.00 | 0.00 | 0.00 | 48 | 1021.9 |
| 20260904105817 | 78 | 266 | 1.0 | 7.0 | 0.00 | 0.00 | 0.00 | 54 | 1021.9 |
| 20260904105618 | 77 | 288 | 1.0 | 7.0 | 0.00 | 0.00 | 0.00 | 51 | 1021.9 |
| 20260904105412 | 77 | 238 | 1.0 | 7.0 | 0.00 | 0.00 | 0.00 | 51 | 1022.0 |
| 20260904105202 | 77 | 231 | 2.0 | 7.0 | 0.00 | 0.00 | 0.00 | 53 | 1022.0 |
| 20260904104641 | 76 | 250 | 3.0 | 7.0 | 0.00 | 0.00 | 0.00 | 54 | 1021.9 |
| 20260904104125 | 76 | 231 | 3.0 | 6.0 | 0.00 | 0.00 | 0.00 | 55 | 1021.9 |
| 20260904103915 | 76 | 237 | 2.0 | 6.0 | 0.00 | 0.00 | 0.00 | 52 | 1021.9 |
| 20260904103709 | 76 | 236 | 2.0 | 6.0 | 0.00 | 0.00 | 0.00 | 53 | 1022.0 |
| 20260904103506 | 76 | 236 | 2.0 | 6.0 | 0.00 | 0.00 | 0.00 | 54 | 1022.0 |
| 20260904103306 | 76 | 244 | 2.0 | 6.0 | 0.00 | 0.00 | 0.00 | 56 | 1022.1 |
| 20260904103103 | 75 | 210 | 2.0 | 6.0 | 0.00 | 0.00 | 0.00 | 52 | 1022.1 |
| 20260904102856 | 75 | 228 | 2.0 | 6.0 | 0.00 | 0.00 | 0.00 | 55 | 1022.1 |
| 20260904102649 | 75 | 240 | 2.0 | 6.0 | 0.00 | 0.00 | 0.00 | 52 | 1022.2 |
| 20260904102117 | 75 | 250 | 2.0 | 7.0 | 0.00 | 0.00 | 0.00 | 54 | 1022.3 |
| 20260904101557 | 75 | 229 | 2.0 | 7.0 | 0.00 | 0.00 | 0.00 | 56 | 1022.4 |
| 20260904101031 | 75 | 252 | 2.0 | 7.0 | 0.00 | 0.00 | 0.00 | 55 | 1022.5 |
| 20260904100824 | 74 | 237 | 2.0 | 7.0 | 0.00 | 0.00 | 0.00 | 57 | 1022.4 |
| 20260904100625 | 74 | 228 | 2.0 | 7.0 | 0.00 | 0.00 | 0.00 | 58 | 1022.5 |
| 20260904100419 | 74 | 239 | 2.0 | 7.0 | 0.00 | 0.00 | 0.00 | 54 | 1022.6 |
| 20260904100215 | 74 | 239 | 2.0 | 6.0 | 0.00 | 0.00 | 0.00 | 58 | 1022.5 |
| 20260904100007 | 74 | 228 | 2.0 | 9.0 | 0.00 | 0.00 | 0.00 | 55 | 1022.6 |
| 20260904095804 | 74 | 236 | 1.0 | 9.0 | 0.00 | 0.00 | 0.00 | 56 | 1022.7 |
| 20260904095605 | 74 | 259 | 2.0 | 9.0 | 0.00 | 0.00 | 0.00 | 57 | 1022.6 |
| 20260904095404 | 74 | 240 | 2.0 | 9.0 | 0.00 | 0.00 | 0.00 | 58 | 1022.7 |
| 20260904095156 | 73 | 245 | 2.0 | 9.0 | 0.00 | 0.00 | 0.00 | 59 | 1022.8 |
| 20260904094950 | 73 | 255 | 3.0 | 9.0 | 0.00 | 0.00 | 0.00 | 57 | 1022.8 |
| 20260904094746 | 73 | 231 | 3.0 | 9.0 | 0.00 | 0.00 | 0.00 | 57 | 1022.8 |
| 20260904094538 | 73 | 269 | 3.0 | 9.0 | 0.00 | 0.00 | 0.00 | 59 | 1022.9 |
| 20260904094336 | 73 | 253 | 3.0 | 9.0 | 0.00 | 0.00 | 0.00 | 57 | 1022.8 |
| 20260904094131 | 73 | 252 | 2.0 | 9.0 | 0.00 | 0.00 | 0.00 | 58 | 1022.8 |
| 20260904093920 | 73 | 245 | 2.0 | 9.0 | 0.00 | 0.00 | 0.00 | 57 | 1022.8 |
| 20260904093401 | 73 | 208 | 3.0 | 9.0 | 0.00 | 0.00 | 0.00 | 58 | 1022.8 |
| 20260904092835 | 72 | 256 | 3.0 | 9.0 | 0.00 | 0.00 | 0.00 | 56 | 1022.9 |
| 20260904092307 | 72 | 246 | 2.0 | 7.0 | 0.00 | 0.00 | 0.00 | 59 | 1023.0 |
| 20260904092105 | 72 | 247 | 3.0 | 7.0 | 0.00 | 0.00 | 0.00 | 59 | 1023.0 |
| 20260904091857 | 72 | 240 | 3.0 | 7.0 | 0.00 | 0.00 | 0.00 | 61 | 1023.0 |
| 20260904091338 | 72 | 226 | 3.0 | 8.0 | 0.00 | 0.00 | 0.00 | 61 | 1022.9 |
| 20260904091132 | 72 | 232 | 3.0 | 8.0 | 0.00 | 0.00 | 0.00 | 59 | 1022.9 |
| 20260904090929 | 72 | 240 | 2.0 | 8.0 | 0.00 | 0.00 | 0.00 | 60 | 1022.9 |
| 20260904090723 | 72 | 237 | 2.0 | 8.0 | 0.00 | 0.00 | 0.00 | 62 | 1022.8 |
| 20260904090523 | 72 | 231 | 3.0 | 8.0 | 0.00 | 0.00 | 0.00 | 62 | 1022.8 |
| 20260904090323 | 71 | 263 | 3.0 | 8.0 | 0.00 | 0.00 | 0.00 | 61 | 1022.8 |
| 20260904090116 | 71 | 250 | 2.0 | 8.0 | 0.00 | 0.00 | 0.00 | 61 | 1022.8 |
| 20260904085557 | 71 | 259 | 2.0 | 7.0 | 0.00 | 0.00 | 0.00 | 63 | 1022.8 |
| 20260904085356 | 71 | 232 | 2.0 | 8.0 | 0.00 | 0.00 | 0.00 | 62 | 1022.8 |
| 20260904084827 | 71 | 172 | 2.0 | 8.0 | 0.00 | 0.00 | 0.00 | 62 | 1022.8 |
| 20260904084614 | 71 | 227 | 2.0 | 8.0 | 0.00 | 0.00 | 0.00 | 60 | 1022.8 |
| 20260904084416 | 70 | 221 | 3.0 | 8.0 | 0.00 | 0.00 | 0.00 | 59 | 1022.8 |
| 20260904084211 | 70 | 226 | 3.0 | 8.0 | 0.00 | 0.00 | 0.00 | 59 | 1022.8 |
| 20260904084005 | 70 | 248 | 3.0 | 8.0 | 0.00 | 0.00 | 0.00 | 59 | 1022.8 |
| 20260904083756 | 70 | 231 | 2.0 | 8.0 | 0.00 | 0.00 | 0.00 | 58 | 1022.9 |
| 20260904083558 | 70 | 215 | 2.0 | 8.0 | 0.00 | 0.00 | 0.00 | 59 | 1022.9 |
| 20260904083356 | 70 | 212 | 2.0 | 5.0 | 0.00 | 0.00 | 0.00 | 59 | 1022.8 |
| 20260904083156 | 70 | 223 | 2.0 | 5.0 | 0.00 | 0.00 | 0.00 | 58 | 1022.8 |
| 20260904082955 | 70 | 254 | 2.0 | 5.0 | 0.00 | 0.00 | 0.00 | 64 | 1022.8 |
| 20260904082753 | 70 | 225 | 2.0 | 5.0 | 0.00 | 0.00 | 0.00 | 61 | 1022.8 |
| 20260904082549 | 70 | 240 | 2.0 | 5.0 | 0.00 | 0.00 | 0.00 | 61 | 1022.8 |
| 20260904082349 | 70 | 246 | 2.0 | 5.0 | 0.00 | 0.00 | 0.00 | 61 | 1022.8 |
| 20260904082144 | 70 | 269 | 2.0 | 6.0 | 0.00 | 0.00 | 0.00 | 61 | 1022.8 |
| 20260904081935 | 70 | 262 | 2.0 | 6.0 | 0.00 | 0.00 | 0.00 | 61 | 1022.8 |
| 20260904081726 | 70 | 259 | 2.0 | 6.0 | 0.00 | 0.00 | 0.00 | 60 | 1022.8 |
| 20260904081518 | 70 | 238 | 2.0 | 6.0 | 0.00 | 0.00 | 0.00 | 64 | 1022.9 |
| 20260904081316 | 70 | 248 | 2.0 | 6.0 | 0.00 | 0.00 | 0.00 | 61 | 1022.8 |
| 20260904081110 | 70 | 217 | 2.0 | 6.0 | 0.00 | 0.00 | 0.00 | 60 | 1022.8 |
| 20260904080909 | 70 | 245 | 1.0 | 6.0 | 0.00 | 0.00 | 0.00 | 61 | 1022.7 |
| 20260904080705 | 70 | 259 | 1.0 | 6.0 | 0.00 | 0.00 | 0.00 | 62 | 1022.8 |
| 20260904080145 | 70 | 281 | 1.0 | 4.0 | 0.00 | 0.00 | 0.00 | 60 | 1022.7 |
| 20260904075936 | 70 | 214 | 1.0 | 4.0 | 0.00 | 0.00 | 0.00 | 60 | 1022.7 |
| 20260904075736 | 70 | 242 | 1.0 | 4.0 | 0.00 | 0.00 | 0.00 | 60 | 1022.8 |
| 20260904075529 | 70 | 238 | 1.0 | 4.0 | 0.00 | 0.00 | 0.00 | 59 | 1022.8 |
| 20260904075322 | 70 | 240 | 0.0 | 4.0 | 0.00 | 0.00 | 0.00 | 61 | 1022.7 |
| 20260904075113 | 70 | 231 | 1.0 | 4.0 | 0.00 | 0.00 | 0.00 | 61 | 1022.7 |
| 20260904074913 | 70 | 241 | 0.0 | 4.0 | 0.00 | 0.00 | 0.00 | 60 | 1022.8 |
| 20260904074707 | 70 | 207 | 0.0 | 4.0 | 0.00 | 0.00 | 0.00 | 63 | 1022.7 |
| 20260904074502 | 69 | 242 | 0.0 | 4.0 | 0.00 | 0.00 | 0.00 | 62 | 1022.7 |
| 20260904074253 | 69 | 229 | 0.0 | 3.0 | 0.00 | 0.00 | 0.00 | 61 | 1022.7 |
| 20260904074045 | 69 | 20 | 0.0 | 0.0 | 0.00 | 0.00 | 0.00 | 66 | 1022.7 |
| 20260904073846 | 69 | 20 | 0.0 | 0.0 | 0.00 | 0.00 | 0.00 | 66 | 1022.8 |
| 20260904073639 | 69 | 20 | 0.0 | 0.0 | 0.00 | 0.00 | 0.00 | 65 | 1022.7 |
| 20260904072754 | 69 | 276 | 0.0 | 6.0 | 0.00 | 0.00 | 0.00 | 67 | 1022.6 |
| 20260904072547 | 69 | 276 | 0.0 | 6.0 | 0.00 | 0.00 | 0.00 | 67 | 1022.7 |
| 20260904072345 | 68 | 238 | 1.0 | 6.0 | 0.00 | 0.00 | 0.00 | 64 | 1022.6 |
| 20260904072140 | 68 | 237 | 1.0 | 6.0 | 0.00 | 0.00 | 0.00 | 61 | 1022.8 |
| 20260904071936 | 68 | 237 | 1.0 | 6.0 | 0.00 | 0.00 | 0.00 | 62 | 1022.7 |
| 20260904071726 | 69 | 233 | 1.0 | 6.0 | 0.00 | 0.00 | 0.00 | 61 | 1022.6 |
| 20260904071527 | 69 | 248 | 1.0 | 6.0 | 0.00 | 0.00 | 0.00 | 60 | 1022.6 |
| 20260904071324 | 69 | 263 | 1.0 | 6.0 | 0.00 | 0.00 | 0.00 | 60 | 1022.6 |
| 20260904071124 | 68 | 238 | 1.0 | 6.0 | 0.00 | 0.00 | 0.00 | 59 | 1022.6 |
| 20260904070923 | 68 | 258 | 1.0 | 6.0 | 0.00 | 0.00 | 0.00 | 58 | 1022.6 |
| 20260904070716 | 68 | 245 | 1.0 | 4.0 | 0.00 | 0.00 | 0.00 | 60 | 1022.6 |
| 20260904070509 | 68 | 240 | 1.0 | 4.0 | 0.00 | 0.00 | 0.00 | 61 | 1022.6 |
| 20260904070304 | 68 | 217 | 0.0 | 4.0 | 0.00 | 0.00 | 0.00 | 59 | 1022.8 |
| 20260904070058 | 68 | 253 | 0.0 | 3.0 | 0.00 | 0.00 | 0.00 | 60 | 1022.7 |
| 20260904065849 | 68 | 244 | 0.0 | 3.0 | 0.00 | 0.00 | 0.00 | 60 | 1022.8 |
| 20260904065642 | 68 | 235 | 0.0 | 3.0 | 0.00 | 0.00 | 0.00 | 61 | 1022.8 |
| 20260904065432 | 67 | 234 | 0.0 | 3.0 | 0.00 | 0.00 | 0.00 | 61 | 1022.7 |
| 20260904065226 | 67 | 233 | 0.0 | 3.0 | 0.00 | 0.00 | 0.00 | 61 | 1022.7 |
| 20260904065018 | 68 | 243 | 1.0 | 3.0 | 0.00 | 0.00 | 0.00 | 61 | 1022.8 |
| 20260904064816 | 68 | 250 | 1.0 | 3.0 | 0.00 | 0.00 | 0.00 | 59 | 1022.7 |
| 20260904064245 | 67 | 237 | 1.0 | 3.0 | 0.00 | 0.00 | 0.00 | 58 | 1022.6 |
| 20260904064044 | 67 | 234 | 0.0 | 2.0 | 0.00 | 0.00 | 0.00 | 59 | 1022.7 |
| 20260904063841 | 67 | 253 | 0.0 | 3.0 | 0.00 | 0.00 | 0.00 | 60 | 1022.8 |
| 20260904063634 | 67 | 245 | 0.0 | 3.0 | 0.00 | 0.00 | 0.00 | 61 | 1022.8 |
| 20260904063110 | 66 | 251 | 0.0 | 3.0 | 0.00 | 0.00 | 0.00 | 61 | 1022.9 |
| 20260904062901 | 66 | 252 | 0.0 | 5.0 | 0.00 | 0.00 | 0.00 | 62 | 1023.0 |
| 20260904062652 | 67 | 252 | 1.0 | 5.0 | 0.00 | 0.00 | 0.00 | 61 | 1022.9 |
| 20260904062448 | 67 | 240 | 1.0 | 5.0 | 0.00 | 0.00 | 0.00 | 61 | 1022.9 |
| 20260904062241 | 67 | 252 | 1.0 | 5.0 | 0.00 | 0.00 | 0.00 | 60 | 1022.9 |
| 20260904062042 | 67 | 240 | 1.0 | 5.0 | 0.00 | 0.00 | 0.00 | 58 | 1022.9 |
| 20260904061832 | 67 | 238 | 1.0 | 6.0 | 0.00 | 0.00 | 0.00 | 58 | 1022.9 |
| 20260904061626 | 67 | 230 | 1.0 | 6.0 | 0.00 | 0.00 | 0.00 | 57 | 1022.8 |
| 20260904061425 | 67 | 223 | 1.0 | 6.0 | 0.00 | 0.00 | 0.00 | 57 | 1022.8 |
| 20260904061215 | 67 | 240 | 1.0 | 6.0 | 0.00 | 0.00 | 0.00 | 57 | 1022.9 |
| 20260904061010 | 67 | 224 | 1.0 | 8.0 | 0.00 | 0.00 | 0.00 | 57 | 1022.9 |
| 20260904060804 | 67 | 219 | 1.0 | 8.0 | 0.00 | 0.00 | 0.00 | 57 | 1022.9 |
| 20260904060604 | 67 | 233 | 1.0 | 8.0 | 0.00 | 0.00 | 0.00 | 57 | 1023.0 |
| 20260904060401 | 67 | 222 | 2.0 | 8.0 | 0.00 | 0.00 | 0.00 | 57 | 1023.0 |
| 20260904060202 | 67 | 217 | 2.0 | 8.0 | 0.00 | 0.00 | 0.00 | 57 | 1023.0 |
| 20260904060003 | 67 | 212 | 2.0 | 8.0 | 0.00 | 0.00 | 0.00 | 57 | 1023.0 |
| 20260904055754 | 67 | 225 | 2.0 | 8.0 | 0.00 | 0.00 | 0.00 | 57 | 1023.0 |
| 20260904055548 | 67 | 232 | 2.0 | 8.0 | 0.00 | 0.00 | 0.00 | 57 | 1023.0 |
| 20260904055349 | 67 | 243 | 2.0 | 8.0 | 0.00 | 0.00 | 0.00 | 57 | 1023.0 |
| 20260904055141 | 67 | 221 | 2.0 | 8.0 | 0.00 | 0.00 | 0.00 | 56 | 1023.0 |
| 20260904054936 | 67 | 234 | 2.0 | 6.0 | 0.00 | 0.00 | 0.00 | 57 | 1023.0 |
| 20260904054737 | 67 | 168 | 1.0 | 5.0 | 0.00 | 0.00 | 0.00 | 57 | 1023.0 |
| 20260904054206 | 66 | 278 | 1.0 | 6.0 | 0.00 | 0.00 | 0.00 | 58 | 1023.0 |
| 20260904054000 | 66 | 255 | 1.0 | 6.0 | 0.00 | 0.00 | 0.00 | 58 | 1023.0 |
| 20260904053801 | 66 | 255 | 1.0 | 6.0 | 0.00 | 0.00 | 0.00 | 58 | 1023.0 |
| 20260904053558 | 66 | 219 | 1.0 | 6.0 | 0.00 | 0.00 | 0.00 | 59 | 1023.0 |
| 20260904053349 | 65 | 226 | 1.0 | 6.0 | 0.00 | 0.00 | 0.00 | 60 | 1023.2 |
| 20260904053148 | 65 | 236 | 1.0 | 6.0 | 0.00 | 0.00 | 0.00 | 60 | 1023.1 |
| 20260904052942 | 65 | 222 | 0.0 | 6.0 | 0.00 | 0.00 | 0.00 | 61 | 1023.2 |
| 20260904052732 | 64 | 219 | 0.0 | 6.0 | 0.00 | 0.00 | 0.00 | 62 | 1023.2 |
| 20260904052204 | 63 | 247 | 0.0 | 4.0 | 0.00 | 0.00 | 0.00 | 64 | 1023.2 |
| 20260904052005 | 62 | 214 | 0.0 | 4.0 | 0.00 | 0.00 | 0.00 | 66 | 1023.2 |
| 20260904051431 | 62 | 229 | 0.0 | 4.0 | 0.00 | 0.00 | 0.00 | 66 | 1023.1 |
| 20260904050901 | 62 | 105 | 0.0 | 0.0 | 0.00 | 0.00 | 0.00 | 66 | 1023.1 |
| 20260904050648 | 62 | 102 | 0.0 | 3.0 | 0.00 | 0.00 | 0.00 | 66 | 1023.2 |
| 20260904050123 | 61 | 93 | 0.0 | 3.0 | 0.00 | 0.00 | 0.00 | 67 | 1023.2 |
| 20260904045918 | 61 | 231 | 0.0 | 3.0 | 0.00 | 0.00 | 0.00 | 67 | 1023.2 |
| 20260904045715 | 61 | 84 | 0.0 | 3.0 | 0.00 | 0.00 | 0.00 | 67 | 1023.2 |
| 20260904045511 | 61 | 92 | 0.0 | 3.0 | 0.00 | 0.00 | 0.00 | 67 | 1023.3 |
| 20260904045306 | 62 | 183 | 0.0 | 3.0 | 0.00 | 0.00 | 0.00 | 67 | 1023.2 |
| 20260904045059 | 62 | 127 | 0.0 | 3.0 | 0.00 | 0.00 | 0.00 | 66 | 1023.1 |
| 20260904044858 | 61 | 210 | 0.0 | 3.0 | 0.00 | 0.00 | 0.00 | 66 | 1023.1 |
| 20260904044657 | 61 | 236 | 0.0 | 3.0 | 0.00 | 0.00 | 0.00 | 67 | 1023.2 |
| 20260904044447 | 61 | 213 | 0.0 | 5.0 | 0.00 | 0.00 | 0.00 | 68 | 1023.2 |
| 20260904044244 | 61 | 82 | 0.0 | 5.0 | 0.00 | 0.00 | 0.00 | 68 | 1023.2 |
| 20260904044043 | 61 | 85 | 0.0 | 5.0 | 0.00 | 0.00 | 0.00 | 68 | 1023.2 |
| 20260904043835 | 61 | 103 | 1.0 | 5.0 | 0.00 | 0.00 | 0.00 | 68 | 1023.2 |
| 20260904043625 | 61 | 120 | 1.0 | 5.0 | 0.00 | 0.00 | 0.00 | 68 | 1023.3 |
| 20260904043423 | 61 | 169 | 2.0 | 5.0 | 0.00 | 0.00 | 0.00 | 68 | 1023.3 |
| 20260904043221 | 61 | 88 | 2.0 | 5.0 | 0.00 | 0.00 | 0.00 | 67 | 1023.2 |
| 20260904043021 | 62 | 129 | 2.0 | 5.0 | 0.00 | 0.00 | 0.00 | 67 | 1023.2 |
| 20260904042457 | 63 | 104 | 0.0 | 4.0 | 0.00 | 0.00 | 0.00 | 64 | 1023.3 |
| 20260904042256 | 64 | 97 | 0.0 | 3.0 | 0.00 | 0.00 | 0.00 | 62 | 1023.3 |
| 20260904042049 | 64 | 243 | 0.0 | 1.0 | 0.00 | 0.00 | 0.00 | 61 | 1023.3 |
| 20260904041839 | 64 | 254 | 0.0 | 0.0 | 0.00 | 0.00 | 0.00 | 60 | 1023.3 |
| 20260904041631 | 64 | 240 | 0.0 | 0.0 | 0.00 | 0.00 | 0.00 | 60 | 1023.3 |
| 20260904041425 | 65 | 239 | 0.0 | 0.0 | 0.00 | 0.00 | 0.00 | 60 | 1023.3 |
| 20260904041225 | 64 | 274 | 0.0 | 3.0 | 0.00 | 0.00 | 0.00 | 60 | 1023.4 |
| 20260904040653 | 64 | 247 | 0.0 | 3.0 | 0.00 | 0.00 | 0.00 | 61 | 1023.3 |
| 20260904040131 | 63 | 248 | 0.0 | 3.0 | 0.00 | 0.00 | 0.00 | 62 | 1023.4 |
| 20260904035928 | 63 | 230 | 0.0 | 2.0 | 0.00 | 0.00 | 0.00 | 62 | 1023.4 |
| 20260904035727 | 63 | 203 | 0.0 | 1.0 | 0.00 | 0.00 | 0.00 | 63 | 1023.3 |
| 20260904035517 | 63 | 63 | 0.0 | 0.0 | 0.00 | 0.00 | 0.00 | 63 | 1023.3 |
| 20260904035311 | 63 | 75 | 0.0 | 2.0 | 0.00 | 0.00 | 0.00 | 63 | 1023.5 |
| 20260904035101 | 63 | 93 | 0.0 | 2.0 | 0.00 | 0.00 | 0.00 | 63 | 1023.4 |
| 20260904034856 | 64 | 156 | 0.0 | 0.0 | 0.00 | 0.00 | 0.00 | 62 | 1023.4 |
| 20260904034652 | 64 | 101 | 0.0 | 1.0 | 0.00 | 0.00 | 0.00 | 61 | 1023.5 |
| 20260904034447 | 64 | 113 | 0.0 | 0.0 | 0.00 | 0.00 | 0.00 | 61 | 1023.4 |
| 20260904034244 | 64 | 113 | 0.0 | 1.0 | 0.00 | 0.00 | 0.00 | 61 | 1023.6 |
| 20260904033714 | 64 | 233 | 0.0 | 0.0 | 0.00 | 0.00 | 0.00 | 61 | 1023.6 |
| 20260904033508 | 64 | 233 | 0.0 | 0.0 | 0.00 | 0.00 | 0.00 | 60 | 1023.6 |
| 20260904033258 | 64 | 233 | 0.0 | 0.0 | 0.00 | 0.00 | 0.00 | 61 | 1023.5 |
| 20260904033052 | 64 | 229 | 0.0 | 0.0 | 0.00 | 0.00 | 0.00 | 61 | 1023.5 |
| 20260904032219 | 64 | 229 | 0.0 | 0.0 | 0.00 | 0.00 | 0.00 | 64 | 1023.7 |
| 20260904032011 | 64 | 229 | 0.0 | 0.0 | 0.00 | 0.00 | 0.00 | 64 | 1023.7 |
| 20260904031803 | 63 | 229 | 0.0 | 0.0 | 0.00 | 0.00 | 0.00 | 64 | 1023.7 |
| 20260904031558 | 63 | 229 | 0.0 | 0.0 | 0.00 | 0.00 | 0.00 | 64 | 1023.7 |
| 20260904031349 | 63 | 229 | 0.0 | 0.0 | 0.00 | 0.00 | 0.00 | 64 | 1023.7 |
| 20260904031142 | 63 | 227 | 0.0 | 0.0 | 0.00 | 0.00 | 0.00 | 64 | 1023.7 |
| 20260904030619 | 62 | 229 | 0.0 | 0.0 | 0.00 | 0.00 | 0.00 | 66 | 1023.7 |
| 20260904030407 | 62 | 229 | 0.0 | 0.0 | 0.00 | 0.00 | 0.00 | 67 | 1023.7 |
| 20260904030206 | 62 | 224 | 0.0 | 4.0 | 0.00 | 0.00 | 0.00 | 67 | 1023.7 |
| 20260904030006 | 61 | 220 | 0.0 | 4.0 | 0.00 | 0.00 | 0.00 | 69 | 1023.7 |
| 20260904025758 | 61 | 103 | 1.0 | 4.0 | 0.00 | 0.00 | 0.00 | 70 | 1023.7 |
| 20260904025556 | 61 | 96 | 2.0 | 4.0 | 0.00 | 0.00 | 0.00 | 70 | 1023.8 |
| 20260904025346 | 61 | 116 | 2.0 | 4.0 | 0.00 | 0.00 | 0.00 | 70 | 1023.7 |
| 20260904025138 | 61 | 94 | 2.0 | 5.0 | 0.00 | 0.00 | 0.00 | 70 | 1023.7 |
| 20260904024939 | 61 | 94 | 2.0 | 5.0 | 0.00 | 0.00 | 0.00 | 70 | 1023.8 |
| 20260904024413 | 61 | 107 | 2.0 | 5.0 | 0.00 | 0.00 | 0.00 | 69 | 1023.8 |
| 20260904024210 | 61 | 135 | 2.0 | 7.0 | 0.00 | 0.00 | 0.00 | 69 | 1023.8 |
| 20260904023323 | 61 | 111 | 3.0 | 7.0 | 0.00 | 0.00 | 0.00 | 70 | 1023.9 |
| 20260904023114 | 61 | 112 | 3.0 | 7.0 | 0.00 | 0.00 | 0.00 | 70 | 1023.9 |
| 20260904022908 | 61 | 123 | 3.0 | 7.0 | 0.00 | 0.00 | 0.00 | 70 | 1023.9 |
| 20260904022704 | 60 | 121 | 3.0 | 7.0 | 0.00 | 0.00 | 0.00 | 70 | 1024.1 |
| 20260904022133 | 60 | 124 | 2.0 | 5.0 | 0.00 | 0.00 | 0.00 | 70 | 1024.1 |
| 20260904021927 | 60 | 98 | 2.0 | 5.0 | 0.00 | 0.00 | 0.00 | 70 | 1024.1 |
| 20260904021354 | 61 | 110 | 2.0 | 4.0 | 0.00 | 0.00 | 0.00 | 70 | 1024.2 |
| 20260904021148 | 61 | 122 | 1.0 | 4.0 | 0.00 | 0.00 | 0.00 | 69 | 1024.2 |
| 20260904020939 | 61 | 126 | 1.0 | 4.0 | 0.00 | 0.00 | 0.00 | 68 | 1024.2 |
| 20260904020410 | 63 | 117 | 0.0 | 3.0 | 0.00 | 0.00 | 0.00 | 67 | 1024.2 |
| 20260904020205 | 64 | 77 | 0.0 | 3.0 | 0.00 | 0.00 | 0.00 | 67 | 1024.2 |
| 20260904020004 | 64 | 117 | 0.0 | 0.0 | 0.00 | 0.00 | 0.00 | 67 | 1024.2 |
| 20260904015437 | 63 | 154 | 0.0 | 0.0 | 0.00 | 0.00 | 0.00 | 67 | 1024.1 |
| 20260904014921 | 63 | 154 | 0.0 | 0.0 | 0.00 | 0.00 | 0.00 | 67 | 1024.2 |
| 20260904014716 | 63 | 154 | 0.0 | 0.0 | 0.00 | 0.00 | 0.00 | 67 | 1024.2 |
| 20260904014509 | 63 | 154 | 0.0 | 0.0 | 0.00 | 0.00 | 0.00 | 66 | 1024.3 |
| 20260904014309 | 63 | 154 | 0.0 | 0.0 | 0.00 | 0.00 | 0.00 | 67 | 1024.3 |
| 20260904014106 | 63 | 154 | 0.0 | 0.0 | 0.00 | 0.00 | 0.00 | 67 | 1024.2 |
| 20260904013905 | 64 | 154 | 0.0 | 0.0 | 0.00 | 0.00 | 0.00 | 67 | 1024.3 |
| 20260904013658 | 63 | 154 | 0.0 | 0.0 | 0.00 | 0.00 | 0.00 | 67 | 1024.3 |
| 20260904013449 | 63 | 154 | 0.0 | 0.0 | 0.00 | 0.00 | 0.00 | 67 | 1024.2 |
| 20260904012610 | 62 | 154 | 0.0 | 5.0 | 0.00 | 0.00 | 0.00 | 69 | 1024.3 |
| 20260904012407 | 62 | 148 | 0.0 | 5.0 | 0.00 | 0.00 | 0.00 | 70 | 1024.4 |
| 20260904012203 | 61 | 144 | 0.0 | 5.0 | 0.00 | 0.00 | 0.00 | 70 | 1024.4 |
| 20260904012001 | 61 | 160 | 1.0 | 5.0 | 0.00 | 0.00 | 0.00 | 70 | 1024.4 |
| 20260904011757 | 61 | 214 | 1.0 | 5.0 | 0.00 | 0.00 | 0.00 | 70 | 1024.5 |
| 20260904011549 | 61 | 96 | 2.0 | 5.0 | 0.00 | 0.00 | 0.00 | 69 | 1024.5 |
| 20260904011346 | 61 | 55 | 2.0 | 5.0 | 0.00 | 0.00 | 0.00 | 70 | 1024.5 |
| 20260904011143 | 61 | 105 | 2.0 | 5.0 | 0.00 | 0.00 | 0.00 | 69 | 1024.5 |
| 20260904010614 | 62 | 114 | 1.0 | 4.0 | 0.00 | 0.00 | 0.00 | 69 | 1024.5 |
| 20260904010055 | 63 | 125 | 0.0 | 3.0 | 0.00 | 0.00 | 0.00 | 67 | 1024.6 |
| 20260904005855 | 63 | 54 | 0.0 | 2.0 | 0.00 | 0.00 | 0.00 | 67 | 1024.6 |
| 20260904005653 | 63 | 89 | 0.0 | 1.0 | 0.00 | 0.00 | 0.00 | 67 | 1024.6 |
| 20260904005118 | 62 | 144 | 0.0 | 0.0 | 0.00 | 0.00 | 0.00 | 67 | 1024.6 |
| 20260904004912 | 63 | 144 | 0.0 | 0.0 | 0.00 | 0.00 | 0.00 | 67 | 1024.6 |
| 20260904004713 | 63 | 144 | 0.0 | 0.0 | 0.00 | 0.00 | 0.00 | 67 | 1024.6 |
| 20260904004512 | 63 | 144 | 0.0 | 0.0 | 0.00 | 0.00 | 0.00 | 67 | 1024.6 |
| 20260904004308 | 63 | 144 | 0.0 | 0.0 | 0.00 | 0.00 | 0.00 | 67 | 1024.7 |
| 20260904004106 | 63 | 144 | 0.0 | 0.0 | 0.00 | 0.00 | 0.00 | 67 | 1024.6 |
| 20260904003900 | 63 | 144 | 0.0 | 0.0 | 0.00 | 0.00 | 0.00 | 67 | 1024.7 |
| 20260904003653 | 63 | 144 | 0.0 | 0.0 | 0.00 | 0.00 | 0.00 | 67 | 1024.7 |
| 20260904003454 | 63 | 144 | 0.0 | 0.0 | 0.00 | 0.00 | 0.00 | 66 | 1024.7 |
| 20260904003248 | 63 | 144 | 0.0 | 0.0 | 0.00 | 0.00 | 0.00 | 67 | 1024.7 |
| 20260904003038 | 63 | 144 | 0.0 | 0.0 | 0.00 | 0.00 | 0.00 | 66 | 1024.8 |
| 20260904002829 | 63 | 145 | 0.0 | 0.0 | 0.00 | 0.00 | 0.00 | 66 | 1024.8 |
| 20260904002621 | 64 | 144 | 0.0 | 0.0 | 0.00 | 0.00 | 0.00 | 66 | 1024.9 |
| 20260904002414 | 64 | 144 | 0.0 | 0.0 | 0.00 | 0.00 | 0.00 | 65 | 1024.9 |
| 20260904002208 | 64 | 144 | 0.0 | 0.0 | 0.00 | 0.00 | 0.00 | 65 | 1024.8 |
| 20260904001958 | 64 | 144 | 0.0 | 0.0 | 0.00 | 0.00 | 0.00 | 65 | 1024.8 |
| 20260904001750 | 64 | 144 | 0.0 | 0.0 | 0.00 | 0.00 | 0.00 | 65 | 1024.9 |
| 20260904001548 | 64 | 144 | 0.0 | 0.0 | 0.00 | 0.00 | 0.00 | 65 | 1024.9 |
| 20260904001339 | 64 | 144 | 0.0 | 0.0 | 0.00 | 0.00 | 0.00 | 66 | 1024.8 |
| 20260904001135 | 64 | 144 | 0.0 | 0.0 | 0.00 | 0.00 | 0.00 | 66 | 1024.8 |
| 20260904000928 | 64 | 144 | 0.0 | 1.0 | 0.00 | 0.00 | 0.00 | 66 | 1024.8 |
| 20260904000722 | 63 | 130 | 0.0 | 1.0 | 0.00 | 0.00 | 0.00 | 67 | 1024.8 |
| 20260904000516 | 64 | 131 | 0.0 | 1.0 | 0.00 | 0.00 | 0.00 | 66 | 1024.9 |
| 20260904000305 | 64 | 119 | 0.0 | 1.0 | 0.00 | 0.00 | 0.00 | 66 | 1025.0 |
| 20260904000055 | 64 | 135 | 0.0 | 0.0 | 0.00 | 0.00 | 0.00 | 65 | 1025.0 |
| 20260903235855 | 64 | 135 | 0.0 | 1.0 | 0.00 | 0.00 | 0.00 | 65 | 1024.9 |
| 20260903235649 | 64 | 135 | 0.0 | 1.0 | 0.00 | 0.00 | 0.00 | 65 | 1024.8 |
| 20260903235441 | 64 | 134 | 0.0 | 0.0 | 0.00 | 0.00 | 0.00 | 65 | 1024.8 |
| 20260903235234 | 64 | 133 | 0.0 | 1.0 | 0.00 | 0.00 | 0.00 | 65 | 1024.7 |
| 20260903235034 | 64 | 127 | 0.0 | 3.0 | 0.00 | 0.00 | 0.00 | 65 | 1024.7 |
| 20260903234510 | 64 | 132 | 0.0 | 3.0 | 0.00 | 0.00 | 0.00 | 67 | 1024.8 |
| 20260903234310 | 63 | 132 | 0.0 | 3.0 | 0.00 | 0.00 | 0.00 | 68 | 1024.8 |
| 20260903233742 | 62 | 140 | 1.0 | 5.0 | 0.00 | 0.00 | 0.00 | 68 | 1024.9 |
| 20260903233532 | 62 | 75 | 2.0 | 5.0 | 0.00 | 0.00 | 0.00 | 68 | 1024.9 |
| 20260903233008 | 62 | 110 | 3.0 | 5.0 | 0.00 | 0.00 | 0.00 | 67 | 1024.9 |
| 20260903232808 | 62 | 117 | 2.0 | 5.0 | 0.00 | 0.00 | 0.00 | 67 | 1024.9 |
| 20260903232608 | 62 | 125 | 2.0 | 5.0 | 0.00 | 0.00 | 0.00 | 67 | 1024.9 |
| 20260903232405 | 62 | 134 | 2.0 | 5.0 | 0.00 | 0.00 | 0.00 | 67 | 1024.9 |
| 20260903232201 | 62 | 103 | 1.0 | 3.0 | 0.00 | 0.00 | 0.00 | 68 | 1025.1 |
| 20260903231950 | 62 | 91 | 1.0 | 3.0 | 0.00 | 0.00 | 0.00 | 68 | 1025.0 |
| 20260903231745 | 63 | 91 | 1.0 | 3.0 | 0.00 | 0.00 | 0.00 | 68 | 1025.0 |
| 20260903231536 | 63 | 128 | 0.0 | 3.0 | 0.00 | 0.00 | 0.00 | 67 | 1025.0 |
| 20260903231331 | 63 | 109 | 0.0 | 3.0 | 0.00 | 0.00 | 0.00 | 67 | 1025.1 |
| 20260903231122 | 63 | 119 | 0.0 | 3.0 | 0.00 | 0.00 | 0.00 | 66 | 1025.1 |
| 20260903230922 | 64 | 103 | 0.0 | 0.0 | 0.00 | 0.00 | 0.00 | 67 | 1025.0 |
| 20260903230717 | 64 | 81 | 0.0 | 1.0 | 0.00 | 0.00 | 0.00 | 67 | 1025.0 |
| 20260903230515 | 64 | 134 | 0.0 | 1.0 | 0.00 | 0.00 | 0.00 | 67 | 1025.0 |
| 20260903230313 | 64 | 156 | 0.0 | 0.0 | 0.00 | 0.00 | 0.00 | 67 | 1025.0 |
| 20260903230104 | 64 | 193 | 0.0 | 0.0 | 0.00 | 0.00 | 0.00 | 67 | 1024.9 |
| 20260903225540 | 64 | 193 | 0.0 | 0.0 | 0.00 | 0.00 | 0.00 | 67 | 1025.0 |
| 20260903225338 | 64 | 193 | 0.0 | 0.0 | 0.00 | 0.00 | 0.00 | 66 | 1025.0 |
| 20260903225138 | 64 | 193 | 0.0 | 0.0 | 0.00 | 0.00 | 0.00 | 66 | 1025.0 |
| 20260903224929 | 64 | 193 | 0.0 | 0.0 | 0.00 | 0.00 | 0.00 | 66 | 1025.0 |
| 20260903224728 | 64 | 193 | 0.0 | 0.0 | 0.00 | 0.00 | 0.00 | 66 | 1025.0 |
| 20260903224157 | 65 | 193 | 0.0 | 0.0 | 0.00 | 0.00 | 0.00 | 65 | 1025.1 |
| 20260903223950 | 65 | 193 | 0.0 | 0.0 | 0.00 | 0.00 | 0.00 | 64 | 1025.2 |
| 20260903223746 | 65 | 193 | 0.0 | 0.0 | 0.00 | 0.00 | 0.00 | 64 | 1025.2 |
| 20260903223536 | 65 | 193 | 0.0 | 0.0 | 0.00 | 0.00 | 0.00 | 64 | 1025.3 |
| 20260903223327 | 65 | 193 | 0.0 | 0.0 | 0.00 | 0.00 | 0.00 | 63 | 1025.2 |
| 20260903223122 | 65 | 193 | 0.0 | 0.0 | 0.00 | 0.00 | 0.00 | 63 | 1025.2 |
| 20260903222923 | 66 | 193 | 0.0 | 0.0 | 0.00 | 0.00 | 0.00 | 63 | 1025.2 |
| 20260903222723 | 66 | 193 | 0.0 | 0.0 | 0.00 | 0.00 | 0.00 | 63 | 1025.2 |
| 20260903222522 | 66 | 193 | 0.0 | 0.0 | 0.00 | 0.00 | 0.00 | 63 | 1025.2 |
| 20260903222316 | 65 | 203 | 0.0 | 0.0 | 0.00 | 0.00 | 0.00 | 63 | 1025.2 |
| 20260903222111 | 65 | 203 | 0.0 | 0.0 | 0.00 | 0.00 | 0.00 | 63 | 1025.2 |
| 20260903221909 | 65 | 203 | 0.0 | 0.0 | 0.00 | 0.00 | 0.00 | 63 | 1025.2 |
| 20260903221707 | 65 | 205 | 0.0 | 0.0 | 0.00 | 0.00 | 0.00 | 64 | 1025.2 |
| 20260903221507 | 65 | 205 | 0.0 | 0.0 | 0.00 | 0.00 | 0.00 | 63 | 1025.2 |
| 20260903220625 | 65 | 248 | 0.0 | 0.0 | 0.00 | 0.00 | 0.00 | 64 | 1025.3 |
| 20260903220416 | 65 | 248 | 0.0 | 0.0 | 0.00 | 0.00 | 0.00 | 64 | 1025.3 |
| 20260903220205 | 65 | 247 | 0.0 | 0.0 | 0.00 | 0.00 | 0.00 | 64 | 1025.3 |
| 20260903220001 | 65 | 248 | 0.0 | 0.0 | 0.00 | 0.00 | 0.00 | 64 | 1025.3 |
| 20260903215801 | 65 | 247 | 0.0 | 0.0 | 0.00 | 0.00 | 0.00 | 64 | 1025.3 |
| 20260903215553 | 65 | 248 | 0.0 | 0.0 | 0.00 | 0.00 | 0.00 | 64 | 1025.3 |
| 20260903215028 | 65 | 248 | 0.0 | 0.0 | 0.00 | 0.00 | 0.00 | 64 | 1025.4 |
| 20260903214824 | 65 | 248 | 0.0 | 0.0 | 0.00 | 0.00 | 0.00 | 64 | 1025.4 |
| 20260903214618 | 65 | 248 | 0.0 | 0.0 | 0.00 | 0.00 | 0.00 | 64 | 1025.5 |
| 20260903214413 | 65 | 248 | 0.0 | 0.0 | 0.00 | 0.00 | 0.00 | 64 | 1025.4 |
| 20260903214213 | 65 | 247 | 0.0 | 0.0 | 0.00 | 0.00 | 0.00 | 64 | 1025.4 |
| 20260903214002 | 65 | 248 | 0.0 | 0.0 | 0.00 | 0.00 | 0.00 | 64 | 1025.5 |
| 20260903213753 | 65 | 248 | 0.0 | 0.0 | 0.00 | 0.00 | 0.00 | 64 | 1025.5 |
| 20260903213544 | 65 | 248 | 0.0 | 0.0 | 0.00 | 0.00 | 0.00 | 65 | 1025.5 |
| 20260903213338 | 65 | 248 | 0.0 | 0.0 | 0.00 | 0.00 | 0.00 | 65 | 1025.5 |
| 20260903213132 | 64 | 248 | 0.0 | 0.0 | 0.00 | 0.00 | 0.00 | 65 | 1025.6 |
| 20260903212926 | 64 | 248 | 0.0 | 0.0 | 0.00 | 0.00 | 0.00 | 65 | 1025.5 |
| 20260903212725 | 64 | 248 | 0.0 | 0.0 | 0.00 | 0.00 | 0.00 | 65 | 1025.5 |
| 20260903212515 | 64 | 248 | 0.0 | 0.0 | 0.00 | 0.00 | 0.00 | 65 | 1025.6 |
| 20260903212312 | 65 | 248 | 0.0 | 0.0 | 0.00 | 0.00 | 0.00 | 65 | 1025.5 |
| 20260903212112 | 65 | 248 | 0.0 | 0.0 | 0.00 | 0.00 | 0.00 | 66 | 1025.5 |
| 20260903211904 | 65 | 248 | 0.0 | 0.0 | 0.00 | 0.00 | 0.00 | 66 | 1025.4 |
| 20260903211703 | 65 | 248 | 0.0 | 0.0 | 0.00 | 0.00 | 0.00 | 66 | 1025.4 |
| 20260903211453 | 65 | 247 | 0.0 | 0.0 | 0.00 | 0.00 | 0.00 | 65 | 1025.5 |
| 20260903211244 | 65 | 248 | 0.0 | 0.0 | 0.00 | 0.00 | 0.00 | 65 | 1025.5 |
| 20260903211045 | 65 | 248 | 0.0 | 0.0 | 0.00 | 0.00 | 0.00 | 65 | 1025.5 |
| 20260903210836 | 65 | 248 | 0.0 | 0.0 | 0.00 | 0.00 | 0.00 | 65 | 1025.5 |
| 20260903210630 | 65 | 248 | 0.0 | 0.0 | 0.00 | 0.00 | 0.00 | 65 | 1025.6 |
| 20260903210422 | 65 | 247 | 0.0 | 0.0 | 0.00 | 0.00 | 0.00 | 65 | 1025.6 |
| 20260903210216 | 65 | 248 | 0.0 | 0.0 | 0.00 | 0.00 | 0.00 | 65 | 1025.5 |
| 20260903210007 | 65 | 248 | 0.0 | 0.0 | 0.00 | 0.00 | 0.00 | 65 | 1025.5 |
| 20260903205800 | 65 | 248 | 0.0 | 0.0 | 0.00 | 0.00 | 0.00 | 65 | 1025.6 |
| 20260903205552 | 65 | 248 | 0.0 | 0.0 | 0.00 | 0.00 | 0.00 | 64 | 1025.6 |
| 20260903205027 | 65 | 248 | 0.0 | 0.0 | 0.00 | 0.00 | 0.00 | 64 | 1025.4 |
| 20260903204826 | 66 | 248 | 0.0 | 0.0 | 0.00 | 0.00 | 0.00 | 64 | 1025.5 |
| 20260903204619 | 66 | 248 | 0.0 | 0.0 | 0.00 | 0.00 | 0.00 | 63 | 1025.5 |
| 20260903204419 | 66 | 247 | 0.0 | 0.0 | 0.00 | 0.00 | 0.00 | 63 | 1025.5 |
| 20260903204212 | 66 | 247 | 0.0 | 0.0 | 0.00 | 0.00 | 0.00 | 63 | 1025.4 |
| 20260903204013 | 66 | 248 | 0.0 | 0.0 | 0.00 | 0.00 | 0.00 | 63 | 1025.5 |
| 20260903203118 | 67 | 247 | 0.0 | 0.0 | 0.00 | 0.00 | 0.00 | 62 | 1025.4 |
| 20260903202911 | 67 | 247 | 0.0 | 0.0 | 0.00 | 0.00 | 0.00 | 62 | 1025.4 |
| 20260903202659 | 67 | 248 | 0.0 | 2.0 | 0.00 | 0.00 | 0.00 | 62 | 1025.4 |
| 20260903202454 | 67 | 241 | 0.0 | 2.0 | 0.00 | 0.00 | 0.00 | 62 | 1025.4 |
| 20260903201605 | 67 | 240 | 0.0 | 1.0 | 0.00 | 0.00 | 0.00 | 62 | 1025.3 |
| 20260903201406 | 67 | 240 | 0.0 | 1.0 | 0.00 | 0.00 | 0.00 | 62 | 1025.3 |
| 20260903201158 | 67 | 237 | 0.0 | 1.0 | 0.00 | 0.00 | 0.00 | 62 | 1025.3 |
| 20260903200958 | 67 | 244 | 0.0 | 1.0 | 0.00 | 0.00 | 0.00 | 62 | 1025.3 |
| 20260903200753 | 67 | 239 | 0.0 | 1.0 | 0.00 | 0.00 | 0.00 | 62 | 1025.3 |
| 20260903200544 | 67 | 239 | 0.0 | 0.0 | 0.00 | 0.00 | 0.00 | 62 | 1025.3 |
| 20260903200340 | 67 | 239 | 0.0 | 0.0 | 0.00 | 0.00 | 0.00 | 61 | 1025.3 |
| 20260903200140 | 67 | 239 | 0.0 | 0.0 | 0.00 | 0.00 | 0.00 | 61 | 1025.3 |
| 20260903195941 | 67 | 239 | 0.0 | 2.0 | 0.00 | 0.00 | 0.00 | 61 | 1025.3 |
| 20260903195732 | 67 | 239 | 0.0 | 2.0 | 0.00 | 0.00 | 0.00 | 61 | 1025.2 |
| 20260903195530 | 67 | 235 | 0.0 | 2.0 | 0.00 | 0.00 | 0.00 | 61 | 1025.3 |
| 20260903195332 | 68 | 245 | 0.0 | 2.0 | 0.00 | 0.00 | 0.00 | 61 | 1025.3 |
| 20260903195121 | 68 | 236 | 0.0 | 2.0 | 0.00 | 0.00 | 0.00 | 60 | 1025.3 |
| 20260903194914 | 68 | 233 | 0.0 | 2.0 | 0.00 | 0.00 | 0.00 | 60 | 1025.3 |
| 20260903194706 | 68 | 238 | 0.0 | 2.0 | 0.00 | 0.00 | 0.00 | 60 | 1025.3 |
| 20260903193822 | 68 | 235 | 1.0 | 2.0 | 0.00 | 0.00 | 0.00 | 60 | 1025.3 |
| 20260903193620 | 68 | 230 | 1.0 | 2.0 | 0.00 | 0.00 | 0.00 | 60 | 1025.3 |
| 20260903193421 | 68 | 236 | 1.0 | 2.0 | 0.00 | 0.00 | 0.00 | 60 | 1025.3 |
| 20260903193211 | 68 | 234 | 1.0 | 2.0 | 0.00 | 0.00 | 0.00 | 59 | 1025.2 |
| 20260903193006 | 68 | 239 | 1.0 | 2.0 | 0.00 | 0.00 | 0.00 | 59 | 1025.2 |
| 20260903192756 | 68 | 241 | 1.0 | 2.0 | 0.00 | 0.00 | 0.00 | 59 | 1025.1 |
| 20260903192553 | 68 | 236 | 0.0 | 2.0 | 0.00 | 0.00 | 0.00 | 58 | 1025.0 |
| 20260903192353 | 68 | 240 | 0.0 | 2.0 | 0.00 | 0.00 | 0.00 | 58 | 1025.2 |
| 20260903192151 | 68 | 244 | 0.0 | 2.0 | 0.00 | 0.00 | 0.00 | 58 | 1025.1 |
| 20260903191951 | 68 | 221 | 0.0 | 2.0 | 0.00 | 0.00 | 0.00 | 58 | 1025.0 |
| 20260903191746 | 68 | 255 | 0.0 | 1.0 | 0.00 | 0.00 | 0.00 | 58 | 1025.0 |
| 20260903191543 | 68 | 253 | 0.0 | 1.0 | 0.00 | 0.00 | 0.00 | 58 | 1025.1 |
| 20260903191339 | 68 | 238 | 0.0 | 1.0 | 0.00 | 0.00 | 0.00 | 57 | 1025.0 |
| 20260903191133 | 68 | 234 | 0.0 | 1.0 | 0.00 | 0.00 | 0.00 | 57 | 1025.0 |
| 20260903190925 | 68 | 233 | 0.0 | 0.0 | 0.00 | 0.00 | 0.00 | 58 | 1025.0 |
| 20260903190725 | 68 | 231 | 0.0 | 0.0 | 0.00 | 0.00 | 0.00 | 58 | 1025.0 |
| 20260903190516 | 68 | 238 | 0.0 | 0.0 | 0.00 | 0.00 | 0.00 | 58 | 1025.0 |
| 20260903190308 | 68 | 238 | 0.0 | 0.0 | 0.00 | 0.00 | 0.00 | 57 | 1025.0 |
| 20260903190105 | 68 | 238 | 0.0 | 0.0 | 0.00 | 0.00 | 0.00 | 57 | 1025.0 |
| 20260903185856 | 69 | 238 | 0.0 | 0.0 | 0.00 | 0.00 | 0.00 | 57 | 1024.9 |
| 20260903185648 | 68 | 238 | 0.0 | 2.0 | 0.00 | 0.00 | 0.00 | 57 | 1025.0 |
| 20260903185440 | 68 | 238 | 0.0 | 2.0 | 0.00 | 0.00 | 0.00 | 57 | 1025.0 |
| 20260903184556 | 68 | 236 | 0.0 | 0.0 | 0.00 | 0.00 | 0.00 | 57 | 1024.8 |
| 20260903184355 | 68 | 236 | 0.0 | 0.0 | 0.00 | 0.00 | 0.00 | 57 | 1024.8 |
| 20260903184146 | 68 | 236 | 0.0 | 0.0 | 0.00 | 0.00 | 0.00 | 57 | 1024.7 |
| 20260903183945 | 68 | 236 | 0.0 | 0.0 | 0.00 | 0.00 | 0.00 | 57 | 1024.7 |
| 20260903182751 | 69 | 231 | 0.0 | 0.0 | 0.00 | 0.00 | 0.00 | 56 | 1024.5 |
| 20260903182541 | 69 | 231 | 0.0 | 1.0 | 0.00 | 0.00 | 0.00 | 56 | 1024.6 |
| 20260903182013 | 69 | 251 | 0.0 | 1.0 | 0.00 | 0.00 | 0.00 | 56 | 1024.6 |
| 20260903181812 | 69 | 236 | 0.0 | 0.0 | 0.00 | 0.00 | 0.00 | 56 | 1024.6 |
| 20260903181251 | 69 | 236 | 0.0 | 0.0 | 0.00 | 0.00 | 0.00 | 56 | 1024.6 |
| 20260903181050 | 69 | 236 | 0.0 | 0.0 | 0.00 | 0.00 | 0.00 | 55 | 1024.5 |
| 20260903180519 | 69 | 236 | 0.0 | 0.0 | 0.00 | 0.00 | 0.00 | 56 | 1024.5 |
| 20260903180313 | 69 | 236 | 0.0 | 0.0 | 0.00 | 0.00 | 0.00 | 56 | 1024.5 |
| 20260903180107 | 69 | 236 | 0.0 | 0.0 | 0.00 | 0.00 | 0.00 | 56 | 1024.4 |
| 20260903175538 | 70 | 236 | 0.0 | 0.0 | 0.00 | 0.00 | 0.00 | 56 | 1024.4 |
| 20260903175338 | 70 | 236 | 0.0 | 0.0 | 0.00 | 0.00 | 0.00 | 56 | 1024.5 |
| 20260903175130 | 70 | 236 | 0.0 | 0.0 | 0.00 | 0.00 | 0.00 | 56 | 1024.4 |
| 20260903174924 | 70 | 236 | 0.0 | 0.0 | 0.00 | 0.00 | 0.00 | 56 | 1024.4 |
| 20260903174718 | 71 | 236 | 0.0 | 0.0 | 0.00 | 0.00 | 0.00 | 57 | 1024.4 |
| 20260903174516 | 71 | 236 | 0.0 | 0.0 | 0.00 | 0.00 | 0.00 | 57 | 1024.4 |
| 20260903174315 | 71 | 236 | 0.0 | 0.0 | 0.00 | 0.00 | 0.00 | 57 | 1024.3 |
| 20260903174106 | 71 | 236 | 0.0 | 2.0 | 0.00 | 0.00 | 0.00 | 56 | 1024.4 |
| 20260903173545 | 71 | 235 | 0.0 | 1.0 | 0.00 | 0.00 | 0.00 | 56 | 1024.5 |
| 20260903173343 | 71 | 244 | 0.0 | 0.0 | 0.00 | 0.00 | 0.00 | 56 | 1024.5 |
| 20260903173143 | 71 | 245 | 0.0 | 0.0 | 0.00 | 0.00 | 0.00 | 56 | 1024.6 |
| 20260903172934 | 72 | 245 | 0.0 | 0.0 | 0.00 | 0.00 | 0.00 | 56 | 1024.3 |
| 20260903172047 | 72 | 238 | 0.0 | 3.0 | 0.00 | 0.00 | 0.00 | 55 | 1024.6 |
| 20260903171847 | 72 | 247 | 0.0 | 3.0 | 0.00 | 0.00 | 0.00 | 57 | 1024.6 |
| 20260903171640 | 72 | 252 | 0.0 | 1.0 | 0.00 | 0.00 | 0.00 | 56 | 1024.6 |
| 20260903171436 | 73 | 246 | 0.0 | 1.0 | 0.00 | 0.00 | 0.00 | 55 | 1024.7 |
| 20260903171229 | 73 | 252 | 0.0 | 1.0 | 0.00 | 0.00 | 0.00 | 56 | 1024.6 |
| 20260903171026 | 73 | 252 | 0.0 | 1.0 | 0.00 | 0.00 | 0.00 | 54 | 1024.6 |
| 20260903170827 | 73 | 242 | 0.0 | 1.0 | 0.00 | 0.00 | 0.00 | 54 | 1024.7 |
| 20260903170625 | 73 | 245 | 0.0 | 2.0 | 0.00 | 0.00 | 0.00 | 53 | 1024.6 |
| 20260903170057 | 73 | 224 | 0.0 | 2.0 | 0.00 | 0.00 | 0.00 | 49 | 1024.7 |
| 20260903165849 | 73 | 228 | 0.0 | 1.0 | 0.00 | 0.00 | 0.00 | 51 | 1024.7 |
| 20260903165650 | 73 | 236 | 0.0 | 2.0 | 0.00 | 0.00 | 0.00 | 51 | 1024.7 |
| 20260903165448 | 74 | 234 | 0.0 | 2.0 | 0.00 | 0.00 | 0.00 | 51 | 1024.7 |
| 20260903165242 | 74 | 219 | 0.0 | 2.0 | 0.00 | 0.00 | 0.00 | 53 | 1024.6 |
| 20260903164352 | 75 | 233 | 0.0 | 2.0 | 0.00 | 0.00 | 0.00 | 54 | 1024.6 |
| 20260903163829 | 76 | 240 | 0.0 | 2.0 | 0.00 | 0.00 | 0.00 | 50 | 1024.6 |
| 20260903163619 | 76 | 224 | 0.0 | 1.0 | 0.00 | 0.00 | 0.00 | 47 | 1024.6 |
| 20260903163417 | 76 | 230 | 0.0 | 1.0 | 0.00 | 0.00 | 0.00 | 47 | 1024.6 |
| 20260903163210 | 76 | 275 | 0.0 | 0.0 | 0.00 | 0.00 | 0.00 | 47 | 1024.6 |
| 20260903163007 | 76 | 280 | 0.0 | 0.0 | 0.00 | 0.00 | 0.00 | 45 | 1024.6 |
| 20260903162438 | 77 | 294 | 0.0 | 1.0 | 0.00 | 0.00 | 0.00 | 44 | 1024.5 |
| 20260903162235 | 77 | 309 | 0.0 | 0.0 | 0.00 | 0.00 | 0.00 | 46 | 1024.6 |
| 20260903162025 | 77 | 310 | 0.0 | 2.0 | 0.00 | 0.00 | 0.00 | 45 | 1024.5 |
| 20260903161821 | 76 | 274 | 0.0 | 2.0 | 0.00 | 0.00 | 0.00 | 46 | 1024.6 |
| 20260903161614 | 76 | 304 | 0.0 | 2.0 | 0.00 | 0.00 | 0.00 | 45 | 1024.5 |
| 20260903161407 | 76 | 230 | 0.0 | 2.0 | 0.00 | 0.00 | 0.00 | 45 | 1024.4 |
| 20260903161207 | 76 | 231 | 0.0 | 2.0 | 0.00 | 0.00 | 0.00 | 50 | 1024.4 |
| 20260903160959 | 76 | 233 | 0.0 | 2.0 | 0.00 | 0.00 | 0.00 | 49 | 1024.4 |
| 20260903160446 | 76 | 239 | 0.0 | 3.0 | 0.00 | 0.00 | 0.00 | 51 | 1024.3 |
| 20260903160242 | 76 | 234 | 0.0 | 3.0 | 0.00 | 0.00 | 0.00 | 52 | 1024.4 |
| 20260903160033 | 75 | 238 | 1.0 | 3.0 | 0.00 | 0.00 | 0.00 | 48 | 1024.4 |
| 20260903155824 | 75 | 231 | 1.0 | 5.0 | 0.00 | 0.00 | 0.00 | 51 | 1024.5 |
| 20260903155622 | 75 | 247 | 1.0 | 5.0 | 0.00 | 0.00 | 0.00 | 49 | 1024.5 |
| 20260903155101 | 75 | 235 | 2.0 | 5.0 | 0.00 | 0.00 | 0.00 | 45 | 1024.4 |
| 20260903154859 | 76 | 236 | 2.0 | 5.0 | 0.00 | 0.00 | 0.00 | 48 | 1024.3 |
| 20260903154653 | 76 | 245 | 1.0 | 5.0 | 0.00 | 0.00 | 0.00 | 43 | 1024.3 |
| 20260903154443 | 77 | 235 | 1.0 | 5.0 | 0.00 | 0.00 | 0.00 | 44 | 1024.4 |
| 20260903154235 | 77 | 209 | 0.0 | 5.0 | 0.00 | 0.00 | 0.00 | 44 | 1024.4 |
| 20260903154034 | 77 | 237 | 0.0 | 5.0 | 0.00 | 0.00 | 0.00 | 42 | 1024.3 |
| 20260903153825 | 77 | 262 | 0.0 | 4.0 | 0.00 | 0.00 | 0.00 | 47 | 1024.4 |
| 20260903153616 | 77 | 263 | 0.0 | 4.0 | 0.00 | 0.00 | 0.00 | 47 | 1024.3 |
| 20260903153052 | 77 | 248 | 0.0 | 4.0 | 0.00 | 0.00 | 0.00 | 46 | 1024.3 |
| 20260903152850 | 77 | 239 | 0.0 | 4.0 | 0.00 | 0.00 | 0.00 | 50 | 1024.3 |
| 20260903152331 | 77 | 250 | 0.0 | 3.0 | 0.00 | 0.00 | 0.00 | 47 | 1024.3 |
| 20260903151759 | 77 | 304 | 0.0 | 2.0 | 0.00 | 0.00 | 0.00 | 42 | 1024.4 |
| 20260903151551 | 77 | 315 | 0.0 | 2.0 | 0.00 | 0.00 | 0.00 | 44 | 1024.5 |
| 20260903151348 | 77 | 277 | 0.0 | 1.0 | 0.00 | 0.00 | 0.00 | 46 | 1024.5 |
| 20260903151141 | 76 | 217 | 0.0 | 1.0 | 0.00 | 0.00 | 0.00 | 45 | 1024.5 |
| 20260903150620 | 76 | 256 | 0.0 | 3.0 | 0.00 | 0.00 | 0.00 | 44 | 1024.6 |
| 20260903150420 | 76 | 252 | 0.0 | 3.0 | 0.00 | 0.00 | 0.00 | 45 | 1024.7 |
| 20260903150216 | 76 | 293 | 0.0 | 4.0 | 0.00 | 0.00 | 0.00 | 43 | 1024.6 |
| 20260903150006 | 76 | 297 | 0.0 | 4.0 | 0.00 | 0.00 | 0.00 | 44 | 1024.7 |
| 20260903145758 | 76 | 237 | 1.0 | 4.0 | 0.00 | 0.00 | 0.00 | 44 | 1024.7 |
| 20260903145555 | 76 | 281 | 1.0 | 4.0 | 0.00 | 0.00 | 0.00 | 44 | 1024.6 |
| 20260903145349 | 76 | 276 | 1.0 | 4.0 | 0.00 | 0.00 | 0.00 | 44 | 1024.6 |
| 20260903145144 | 76 | 297 | 1.0 | 6.0 | 0.00 | 0.00 | 0.00 | 44 | 1024.6 |
| 20260903144939 | 76 | 302 | 1.0 | 6.0 | 0.00 | 0.00 | 0.00 | 42 | 1024.5 |
| 20260903144735 | 76 | 307 | 1.0 | 6.0 | 0.00 | 0.00 | 0.00 | 44 | 1024.5 |
| 20260903144527 | 76 | 269 | 1.0 | 6.0 | 0.00 | 0.00 | 0.00 | 43 | 1024.5 |
| 20260903144325 | 76 | 298 | 1.0 | 6.0 | 0.00 | 0.00 | 0.00 | 45 | 1024.5 |
| 20260903144124 | 76 | 285 | 1.0 | 6.0 | 0.00 | 0.00 | 0.00 | 44 | 1024.5 |
| 20260903143924 | 76 | 215 | 1.0 | 6.0 | 0.00 | 0.00 | 0.00 | 45 | 1024.4 |
| 20260903143719 | 76 | 248 | 1.0 | 6.0 | 0.00 | 0.00 | 0.00 | 42 | 1024.4 |
| 20260903143517 | 76 | 278 | 1.0 | 6.0 | 0.00 | 0.00 | 0.00 | 40 | 1024.4 |
| 20260903143309 | 76 | 285 | 1.0 | 6.0 | 0.00 | 0.00 | 0.00 | 44 | 1024.3 |
| 20260903143106 | 76 | 275 | 1.0 | 6.0 | 0.00 | 0.00 | 0.00 | 44 | 1024.4 |
| 20260903142902 | 76 | 242 | 1.0 | 6.0 | 0.00 | 0.00 | 0.00 | 46 | 1024.5 |
| 20260903142657 | 76 | 239 | 1.0 | 6.0 | 0.00 | 0.00 | 0.00 | 47 | 1024.4 |
| 20260903142458 | 76 | 220 | 1.0 | 6.0 | 0.00 | 0.00 | 0.00 | 45 | 1024.5 |
| 20260903142250 | 76 | 245 | 1.0 | 6.0 | 0.00 | 0.00 | 0.00 | 49 | 1024.5 |
| 20260903142046 | 76 | 256 | 1.0 | 6.0 | 0.00 | 0.00 | 0.00 | 45 | 1024.5 |
| 20260903141840 | 76 | 259 | 2.0 | 6.0 | 0.00 | 0.00 | 0.00 | 47 | 1024.5 |
| 20260903141633 | 76 | 236 | 1.0 | 6.0 | 0.00 | 0.00 | 0.00 | 44 | 1024.5 |
| 20260903141111 | 76 | 223 | 1.0 | 5.0 | 0.00 | 0.00 | 0.00 | 43 | 1024.5 |
| 20260903140548 | 76 | 258 | 1.0 | 5.0 | 0.00 | 0.00 | 0.00 | 49 | 1024.5 |
| 20260903140345 | 76 | 255 | 2.0 | 5.0 | 0.00 | 0.00 | 0.00 | 48 | 1024.5 |
| 20260903140135 | 76 | 238 | 2.0 | 5.0 | 0.00 | 0.00 | 0.00 | 47 | 1024.6 |
| 20260903135924 | 76 | 240 | 2.0 | 5.0 | 0.00 | 0.00 | 0.00 | 44 | 1024.6 |
| 20260903135721 | 76 | 255 | 1.0 | 5.0 | 0.00 | 0.00 | 0.00 | 47 | 1024.6 |
| 20260903135513 | 76 | 264 | 1.0 | 5.0 | 0.00 | 0.00 | 0.00 | 47 | 1024.6 |
| 20260903135306 | 76 | 303 | 1.0 | 5.0 | 0.00 | 0.00 | 0.00 | 45 | 1024.6 |
| 20260903135055 | 76 | 303 | 1.0 | 5.0 | 0.00 | 0.00 | 0.00 | 44 | 1024.7 |
| 20260903134845 | 76 | 298 | 1.0 | 5.0 | 0.00 | 0.00 | 0.00 | 44 | 1024.8 |
| 20260903134634 | 76 | 249 | 1.0 | 5.0 | 0.00 | 0.00 | 0.00 | 45 | 1024.7 |
| 20260903134425 | 76 | 241 | 1.0 | 5.0 | 0.00 | 0.00 | 0.00 | 46 | 1024.6 |
| 20260903134224 | 76 | 241 | 1.0 | 5.0 | 0.00 | 0.00 | 0.00 | 46 | 1024.7 |
| 20260903133702 | 77 | 255 | 0.0 | 5.0 | 0.00 | 0.00 | 0.00 | 49 | 1024.7 |
| 20260903133452 | 76 | 258 | 0.0 | 4.0 | 0.00 | 0.00 | 0.00 | 47 | 1024.7 |
| 20260903132929 | 76 | 239 | 0.0 | 4.0 | 0.00 | 0.00 | 0.00 | 48 | 1024.7 |
| 20260903132728 | 75 | 241 | 0.0 | 2.0 | 0.00 | 0.00 | 0.00 | 47 | 1024.7 |
| 20260903132522 | 75 | 231 | 0.0 | 2.0 | 0.00 | 0.00 | 0.00 | 52 | 1024.7 |
| 20260903132314 | 75 | 236 | 0.0 | 2.0 | 0.00 | 0.00 | 0.00 | 49 | 1024.7 |
| 20260903132114 | 75 | 238 | 0.0 | 2.0 | 0.00 | 0.00 | 0.00 | 51 | 1024.7 |
| 20260903131908 | 75 | 290 | 0.0 | 2.0 | 0.00 | 0.00 | 0.00 | 50 | 1024.8 |
| 20260903131344 | 75 | 283 | 0.0 | 5.0 | 0.00 | 0.00 | 0.00 | 50 | 1024.8 |
| 20260903131139 | 75 | 274 | 0.0 | 5.0 | 0.00 | 0.00 | 0.00 | 49 | 1024.8 |
| 20260903130934 | 75 | 273 | 0.0 | 5.0 | 0.00 | 0.00 | 0.00 | 49 | 1024.8 |
| 20260903130725 | 75 | 243 | 0.0 | 5.0 | 0.00 | 0.00 | 0.00 | 51 | 1024.8 |
| 20260903130521 | 75 | 243 | 0.0 | 5.0 | 0.00 | 0.00 | 0.00 | 53 | 1024.8 |
| 20260903130321 | 75 | 250 | 0.0 | 5.0 | 0.00 | 0.00 | 0.00 | 51 | 1024.8 |
| 20260903130116 | 75 | 255 | 0.0 | 5.0 | 0.00 | 0.00 | 0.00 | 51 | 1024.8 |
| 20260903125913 | 75 | 241 | 0.0 | 5.0 | 0.00 | 0.00 | 0.00 | 52 | 1024.9 |
| 20260903125703 | 75 | 233 | 0.0 | 5.0 | 0.00 | 0.00 | 0.00 | 49 | 1024.9 |
| 20260903125458 | 75 | 237 | 0.0 | 3.0 | 0.00 | 0.00 | 0.00 | 52 | 1024.9 |
| 20260903124616 | 74 | 289 | 0.0 | 3.0 | 0.00 | 0.00 | 0.00 | 51 | 1025.0 |
| 20260903124413 | 74 | 258 | 0.0 | 3.0 | 0.00 | 0.00 | 0.00 | 54 | 1025.0 |
| 20260903124213 | 74 | 232 | 0.0 | 3.0 | 0.00 | 0.00 | 0.00 | 54 | 1025.0 |
| 20260903124007 | 74 | 233 | 0.0 | 3.0 | 0.00 | 0.00 | 0.00 | 54 | 1025.1 |